Location: Prairie View Elementary School
(39.8322°N, 99.5698°W)
Time: 04:33:06
(UTC+00:00)

Cosmos 1190 Rocket - Pass Details

Date: 08 December 2019
Orbit: 756 x 780 km, 74.1° (Epoch: 28 January)

Event Time Altitude Azimuth Distance (km) Brightness Sun altitude
Rises 01:26:40 0° 195° (SSW) 3,209 7.5 -24.9°
Reaches altitude 10° 01:29:02 10° 195° (SSW) 2,284 6.7 -25.3°
Enters shadow 01:34:06 83° 143° (SE) 768 3.8 -26.3°
